Time,TemperatureF,DewpointF,PressureIn,WindDirection,WindDirectionDegrees,WindSpeedMPH,WindSpeedGustMPH,Humidity,HourlyPrecipIn,Conditions,Clouds,dailyrainin,SoftwareType,DateUTC
2013-02-20 00:00:00,20.3,10.0,29.94,NNW,335,10.0,-999.0,70,-99.99,,,0.00,ADS-WS1 bash script,2013-02-20 05:00:00,
2013-02-20 00:05:00,20.3,10.0,29.94,WNW,300,14.0,-999.0,70,-99.99,,,0.00,ADS-WS1 bash script,2013-02-20 05:05:00,
2013-02-20 00:10:00,20.3,10.0,29.95,NW,307,4.0,-999.0,71,-99.99,,,0.00,ADS-WS1 bash script,2013-02-20 05:10:00,
2013-02-20 00:15:00,20.3,10.0,29.95,NW,313,2.0,-999.0,71,-99.99,,,0.00,ADS-WS1 bash script,2013-02-20 05:15:00,
2013-02-20 00:20:00,20.1,10.0,29.95,WNW,286,12.0,-999.0,71,-99.99,,,0.00,ADS-WS1 bash script,2013-02-20 05:20:00,
2013-02-20 00:25:00,20.1,10.0,29.95,NW,309,7.0,-999.0,71,-99.99,,,0.00,ADS-WS1 bash script,2013-02-20 05:25:00,
2013-02-20 00:30:00,20.1,10.0,29.95,NW,307,5.0,-999.0,72,-99.99,,,0.00,ADS-WS1 bash script,2013-02-20 05:30:00,
2013-02-20 00:35:00,19.9,11.0,29.95,NW,320,5.0,-999.0,73,-99.99,,,0.00,ADS-WS1 bash script,2013-02-20 05:35:00,
2013-02-20 00:40:00,19.9,10.0,29.95,West,273,7.0,-999.0,72,-99.99,,,0.00,ADS-WS1 bash script,2013-02-20 05:40:00,
2013-02-20 00:45:00,19.9,11.0,29.96,West,273,3.0,-999.0,73,-99.99,,,0.00,ADS-WS1 bash script,2013-02-20 05:45:00,
2013-02-20 00:50:00,19.7,11.0,29.96,NW,304,4.0,-999.0,75,-99.99,,,0.00,ADS-WS1 bash script,2013-02-20 05:50:00,
2013-02-20 00:55:00,19.6,11.0,29.95,West,271,4.0,-999.0,73,-99.99,,,0.00,ADS-WS1 bash script,2013-02-20 05:55:00,
2013-02-20 01:00:00,19.6,11.0,29.96,NW,320,6.0,-999.0,74,-99.99,,,0.00,ADS-WS1 bash script,2013-02-20 06:00:00,
2013-02-20 01:05:00,19.4,10.0,29.96,NW,309,9.0,-999.0,74,-99.99,,,0.00,ADS-WS1 bash script,2013-02-20 06:05:00,
2013-02-20 01:10:00,19.4,10.0,29.96,NW,313,5.0,-999.0,73,-99.99,,,0.00,ADS-WS1 bash script,2013-02-20 06:10:00,
2013-02-20 01:15:00,19.2,10.0,29.96,NW,313,9.0,-999.0,74,-99.99,,,0.00,ADS-WS1 bash script,2013-02-20 06:15:00,
2013-02-20 01:20:00,19.2,10.0,29.96,NW,309,8.0,-999.0,74,-99.99,,,0.00,ADS-WS1 bash script,2013-02-20 06:20:00,
2013-02-20 01:25:00,19.2,10.0,29.97,WNW,290,3.0,-999.0,73,-99.99,,,0.00,ADS-WS1 bash script,2013-02-20 06:25:00,
2013-02-20 01:30:00,19.2,10.0,29.97,NW,313,8.0,-999.0,75,-99.99,,,0.00,ADS-WS1 bash script,2013-02-20 06:30:00,
2013-02-20 01:35:00,19.4,10.0,29.98,West,268,9.0,-999.0,75,-99.99,,,0.00,ADS-WS1 bash script,2013-02-20 06:35:00,
2013-02-20 01:40:00,19.4,10.0,29.97,NW,313,3.0,-999.0,73,-99.99,,,0.00,ADS-WS1 bash script,2013-02-20 06:40:00,
2013-02-20 01:50:00,19.4,10.0,29.97,NW,313,5.0,-999.0,74,-99.99,,,0.00,ADS-WS1 bash script,2013-02-20 06:50:00,
2013-02-20 01:55:00,19.4,10.0,29.97,NNW,347,9.0,-999.0,75,-99.99,,,0.00,ADS-WS1 bash script,2013-02-20 06:55:00,
2013-02-20 02:05:00,19.4,10.0,29.98,NW,313,5.0,-999.0,73,-99.99,,,0.00,ADS-WS1 bash script,2013-02-20 07:05:00,
2013-02-20 02:10:00,19.4,10.0,29.97,WNW,290,8.0,-999.0,73,-99.99,,,0.00,ADS-WS1 bash script,2013-02-20 07:10:00,
2013-02-20 02:15:00,19.4,10.0,29.98,NW,313,8.0,-999.0,75,-99.99,,,0.00,ADS-WS1 bash script,2013-02-20 07:15:00,
2013-02-20 02:20:00,19.2,10.0,29.98,NW,313,4.0,-999.0,73,-99.99,,,0.00,ADS-WS1 bash script,2013-02-20 07:20:00,
2013-02-20 02:25:00,19.2,10.0,29.98,NW,313,5.0,-999.0,75,-99.99,,,0.00,ADS-WS1 bash script,2013-02-20 07:25:00,
2013-02-20 02:35:00,19.4,10.0,29.98,WNW,290,5.0,-999.0,74,-99.99,,,0.00,ADS-WS1 bash script,2013-02-20 07:35:00,
2013-02-20 02:40:00,19.2,10.0,29.97,West,268,4.0,-999.0,75,-99.99,,,0.00,ADS-WS1 bash script,2013-02-20 07:40:00,
2013-02-20 02:50:00,19.2,10.0,29.97,NW,313,4.0,-999.0,75,-99.99,,,0.00,ADS-WS1 bash script,2013-02-20 07:50:00,
2013-02-20 02:55:00,19.4,10.0,29.98,NW,313,9.0,-999.0,74,-99.99,,,0.00,ADS-WS1 bash script,2013-02-20 07:55:00,
2013-02-20 03:00:00,19.4,10.0,29.98,WNW,299,6.0,-999.0,75,-99.99,,,0.00,ADS-WS1 bash script,2013-02-20 08:00:00,
2013-02-20 03:05:00,19.4,10.0,29.99,WNW,290,9.0,-999.0,74,-99.99,,,0.00,ADS-WS1 bash script,2013-02-20 08:05:00,
2013-02-20 03:15:00,19.6,11.0,29.98,NW,313,10.0,-999.0,73,-99.99,,,0.00,ADS-WS1 bash script,2013-02-20 08:15:00,
2013-02-20 03:20:00,19.6,11.0,29.98,WNW,283,7.0,-999.0,74,-99.99,,,0.00,ADS-WS1 bash script,2013-02-20 08:20:00,
2013-02-20 03:25:00,19.7,11.0,29.98,NW,313,5.0,-999.0,74,-99.99,,,0.00,ADS-WS1 bash script,2013-02-20 08:25:00,
2013-02-20 03:30:00,19.7,11.0,29.98,West,279,13.0,-999.0,73,-99.99,,,0.00,ADS-WS1 bash script,2013-02-20 08:30:00,
2013-02-20 03:35:00,19.7,10.0,29.98,NW,309,7.0,-999.0,72,-99.99,,,0.00,ADS-WS1 bash script,2013-02-20 08:35:00,
2013-02-20 03:40:00,19.7,10.0,29.98,NW,324,8.0,-999.0,71,-99.99,,,0.00,ADS-WS1 bash script,2013-02-20 08:40:00,
2013-02-20 03:45:00,19.6,10.0,29.98,NW,313,13.0,-999.0,72,-99.99,,,0.00,ADS-WS1 bash script,2013-02-20 08:45:00,
2013-02-20 03:50:00,19.6,11.0,29.98,NW,319,6.0,-999.0,73,-99.99,,,0.00,ADS-WS1 bash script,2013-02-20 08:50:00,
2013-02-20 03:55:00,19.6,10.0,29.99,NW,323,6.0,-999.0,72,-99.99,,,0.00,ADS-WS1 bash script,2013-02-20 08:55:00,
2013-02-20 04:05:00,19.6,9.0,29.98,NW,313,9.0,-999.0,69,-99.99,,,0.00,ADS-WS1 bash script,2013-02-20 09:05:00,
2013-02-20 04:10:00,19.6,10.0,29.99,NW,313,5.0,-999.0,70,-99.99,,,0.00,ADS-WS1 bash script,2013-02-20 09:10:00,
2013-02-20 04:15:00,19.6,10.0,29.99,WNW,290,10.0,-999.0,70,-99.99,,,0.00,ADS-WS1 bash script,2013-02-20 09:15:00,
2013-02-20 04:20:00,19.4,10.0,30.00,NNW,347,4.0,-999.0,73,-99.99,,,0.00,ADS-WS1 bash script,2013-02-20 09:20:00,
2013-02-20 04:30:00,18.8,12.0,30.00,West,268,10.0,-999.0,80,-99.99,,,0.00,ADS-WS1 bash script,2013-02-20 09:30:00,
2013-02-20 04:35:00,18.7,12.0,30.01,NNW,328,3.0,-999.0,80,-99.99,,,0.00,ADS-WS1 bash script,2013-02-20 09:35:00,
2013-02-20 04:40:00,18.7,12.0,30.01,NW,313,8.0,-999.0,78,-99.99,,,0.00,ADS-WS1 bash script,2013-02-20 09:40:00,
2013-02-20 04:50:00,18.7,11.0,30.02,WNW,299,3.0,-999.0,76,-99.99,,,0.00,ADS-WS1 bash script,2013-02-20 09:50:00,
2013-02-20 05:00:00,18.5,9.0,30.03,NW,313,12.0,-999.0,74,-99.99,,,0.00,ADS-WS1 bash script,2013-02-20 10:00:00,
2013-02-20 05:05:00,18.5,8.0,30.03,NNW,347,5.0,-999.0,71,-99.99,,,0.00,ADS-WS1 bash script,2013-02-20 10:05:00,
2013-02-20 05:10:00,18.3,7.0,30.03,NW,324,8.0,-999.0,69,-99.99,,,0.00,ADS-WS1 bash script,2013-02-20 10:10:00,
2013-02-20 05:15:00,18.3,7.0,30.03,NW,307,5.0,-999.0,67,-99.99,,,0.00,ADS-WS1 bash script,2013-02-20 10:15:00,
2013-02-20 05:20:00,18.3,6.0,30.03,WNW,296,3.0,-999.0,66,-99.99,,,0.00,ADS-WS1 bash script,2013-02-20 10:20:00,
2013-02-20 05:25:00,18.3,6.0,30.03,NNW,328,5.0,-999.0,65,-99.99,,,0.00,ADS-WS1 bash script,2013-02-20 10:25:00,
2013-02-20 05:30:00,18.3,5.0,30.04,NW,313,6.0,-999.0,63,-99.99,,,0.00,ADS-WS1 bash script,2013-02-20 10:30:00,
2013-02-20 05:35:00,18.5,5.0,30.04,NW,309,4.0,-999.0,62,-99.99,,,0.00,ADS-WS1 bash script,2013-02-20 10:35:00,
2013-02-20 05:40:00,18.5,5.0,30.04,NNW,331,5.0,-999.0,63,-99.99,,,0.00,ADS-WS1 bash script,2013-02-20 10:40:00,
2013-02-20 05:45:00,18.5,5.0,30.04,NNW,335,5.0,-999.0,63,-99.99,,,0.00,ADS-WS1 bash script,2013-02-20 10:45:00,
2013-02-20 05:50:00,18.5,5.0,30.04,NW,313,6.0,-999.0,63,-99.99,,,0.00,ADS-WS1 bash script,2013-02-20 10:50:00,
2013-02-20 05:55:00,18.5,5.0,30.04,WNW,303,10.0,-999.0,63,-99.99,,,0.00,ADS-WS1 bash script,2013-02-20 10:55:00,
2013-02-20 06:00:00,18.3,5.0,30.04,NW,306,4.0,-999.0,63,-99.99,,,0.00,ADS-WS1 bash script,2013-02-20 11:00:00,
2013-02-20 06:05:00,18.3,6.0,30.05,NW,320,2.0,-999.0,64,-99.99,,,0.00,ADS-WS1 bash script,2013-02-20 11:05:00,
2013-02-20 06:10:00,18.1,6.0,30.05,NW,306,11.0,-999.0,64,-99.99,,,0.00,ADS-WS1 bash script,2013-02-20 11:10:00,
2013-02-20 06:15:00,18.1,6.0,30.04,WNW,299,9.0,-999.0,65,-99.99,,,0.00,ADS-WS1 bash script,2013-02-20 11:15:00,
2013-02-20 06:20:00,17.9,6.0,30.04,WNW,283,7.0,-999.0,65,-99.99,,,0.00,ADS-WS1 bash script,2013-02-20 11:20:00,
2013-02-20 06:30:00,17.8,6.0,30.05,West,275,5.0,-999.0,66,-99.99,,,0.00,ADS-WS1 bash script,2013-02-20 11:30:00,
2013-02-20 06:35:00,17.8,6.0,30.05,NW,323,10.0,-999.0,65,-99.99,,,0.00,ADS-WS1 bash script,2013-02-20 11:35:00,
2013-02-20 06:40:00,17.6,6.0,30.05,WNW,300,6.0,-999.0,66,-99.99,,,0.00,ADS-WS1 bash script,2013-02-20 11:40:00,
2013-02-20 06:45:00,17.6,7.0,30.06,NNW,328,4.0,-999.0,67,-99.99,,,0.00,ADS-WS1 bash script,2013-02-20 11:45:00,
2013-02-20 06:50:00,17.4,5.0,30.06,NW,316,9.0,-999.0,65,-99.99,,,0.00,ADS-WS1 bash script,2013-02-20 11:50:00,
2013-02-20 06:55:00,17.4,6.0,30.06,WNW,299,7.0,-999.0,67,-99.99,,,0.00,ADS-WS1 bash script,2013-02-20 11:55:00,
2013-02-20 07:00:00,17.4,6.0,30.06,NW,304,9.0,-999.0,68,-99.99,,,0.00,ADS-WS1 bash script,2013-02-20 12:00:00,
2013-02-20 07:05:00,17.4,6.0,30.06,NW,307,8.0,-999.0,69,-99.99,,,0.00,ADS-WS1 bash script,2013-02-20 12:05:00,
2013-02-20 07:10:00,17.6,7.0,30.06,NW,304,13.0,-999.0,68,-99.99,,,0.00,ADS-WS1 bash script,2013-02-20 12:10:00,
2013-02-20 07:15:00,17.8,8.0,30.06,WNW,285,8.0,-999.0,70,-99.99,,,0.00,ADS-WS1 bash script,2013-02-20 12:15:00,
2013-02-20 07:20:00,17.8,8.0,30.07,NW,319,8.0,-999.0,70,-99.99,,,0.00,ADS-WS1 bash script,2013-02-20 12:20:00,
2013-02-20 07:25:00,17.8,8.0,30.07,WNW,303,6.0,-999.0,70,-99.99,,,0.00,ADS-WS1 bash script,2013-02-20 12:25:00,
2013-02-20 07:30:00,17.9,8.0,30.08,NW,313,11.0,-999.0,70,-99.99,,,0.00,ADS-WS1 bash script,2013-02-20 12:30:00,
2013-02-20 07:35:00,17.8,8.0,30.08,NW,313,6.0,-999.0,71,-99.99,,,0.00,ADS-WS1 bash script,2013-02-20 12:35:00,
2013-02-20 07:40:00,17.8,8.0,30.08,NW,326,5.0,-999.0,71,-99.99,,,0.00,ADS-WS1 bash script,2013-02-20 12:40:00,
2013-02-20 07:50:00,17.9,8.0,30.08,NW,321,8.0,-999.0,70,-99.99,,,0.00,ADS-WS1 bash script,2013-02-20 12:50:00,
2013-02-20 07:55:00,17.9,8.0,30.08,NW,317,5.0,-999.0,70,-99.99,,,0.00,ADS-WS1 bash script,2013-02-20 12:55:00,
2013-02-20 08:00:00,17.8,8.0,30.08,WNW,282,7.0,-999.0,71,-99.99,,,0.00,ADS-WS1 bash script,2013-02-20 13:00:00,
2013-02-20 08:05:00,18.1,8.0,30.09,NW,313,3.0,-999.0,70,-99.99,,,0.00,ADS-WS1 bash script,2013-02-20 13:05:00,
2013-02-20 08:15:00,18.5,7.0,30.08,North,352,5.0,-999.0,69,-99.99,,,0.00,ADS-WS1 bash script,2013-02-20 13:15:00,
2013-02-20 08:25:00,19.0,8.0,30.09,NW,309,6.0,-999.0,67,-99.99,,,0.00,ADS-WS1 bash script,2013-02-20 13:25:00,
2013-02-20 08:30:00,19.4,7.0,30.09,NW,313,5.0,-999.0,66,-99.99,,,0.00,ADS-WS1 bash script,2013-02-20 13:30:00,
2013-02-20 08:35:00,19.4,7.0,30.09,West,268,10.0,-999.0,65,-99.99,,,0.00,ADS-WS1 bash script,2013-02-20 13:35:00,
2013-02-20 08:45:00,19.7,8.0,30.09,NW,319,6.0,-999.0,66,-99.99,,,0.00,ADS-WS1 bash script,2013-02-20 13:45:00,
2013-02-20 08:50:00,20.1,7.0,30.09,NW,309,4.0,-999.0,62,-99.99,,,0.00,ADS-WS1 bash script,2013-02-20 13:50:00,
2013-02-20 08:55:00,20.5,7.0,30.09,NW,306,10.0,-999.0,63,-99.99,,,0.00,ADS-WS1 bash script,2013-02-20 13:55:00,
2013-02-20 09:00:00,20.6,8.0,30.09,NNW,330,11.0,-999.0,63,-99.99,,,0.00,ADS-WS1 bash script,2013-02-20 14:00:00,
2013-02-20 09:10:00,21.2,8.0,30.09,NNW,335,8.0,-999.0,62,-99.99,,,0.00,ADS-WS1 bash script,2013-02-20 14:10:00,
2013-02-20 09:15:00,20.8,7.0,30.09,NNW,340,5.0,-999.0,61,-99.99,,,0.00,ADS-WS1 bash script,2013-02-20 14:15:00,
2013-02-20 09:20:00,21.0,8.0,30.10,North,8,10.0,-999.0,62,-99.99,,,0.00,ADS-WS1 bash script,2013-02-20 14:20:00,
2013-02-20 09:25:00,21.3,8.0,30.09,NW,306,12.0,-999.0,62,-99.99,,,0.00,ADS-WS1 bash script,2013-02-20 14:25:00,
2013-02-20 09:30:00,21.5,8.0,30.09,NW,320,15.0,-999.0,61,-99.99,,,0.00,ADS-WS1 bash script,2013-02-20 14:30:00,
2013-02-20 09:40:00,21.3,7.0,30.09,NW,320,9.0,-999.0,61,-99.99,,,0.00,ADS-WS1 bash script,2013-02-20 14:40:00,
2013-02-20 09:50:00,21.9,8.0,30.10,NW,313,7.0,-999.0,60,-99.99,,,0.00,ADS-WS1 bash script,2013-02-20 14:50:00,
2013-02-20 09:55:00,22.2,8.0,30.09,North,0,7.0,-999.0,61,-99.99,,,0.00,ADS-WS1 bash script,2013-02-20 14:55:00,
2013-02-20 10:00:00,22.4,8.0,30.10,NNW,328,9.0,-999.0,60,-99.99,,,0.00,ADS-WS1 bash script,2013-02-20 15:00:00,
2013-02-20 10:05:00,22.2,8.0,30.10,NW,304,11.0,-999.0,59,-99.99,,,0.00,ADS-WS1 bash script,2013-02-20 15:05:00,
2013-02-20 10:10:00,22.2,8.0,30.10,WNW,290,7.0,-999.0,61,-99.99,,,0.00,ADS-WS1 bash script,2013-02-20 15:10:00,
2013-02-20 10:15:00,22.2,8.0,30.10,NW,313,11.0,-999.0,60,-99.99,,,0.00,ADS-WS1 bash script,2013-02-20 15:15:00,
2013-02-20 10:20:00,22.4,8.0,30.10,NW,316,12.0,-999.0,60,-99.99,,,0.00,ADS-WS1 bash script,2013-02-20 15:20:00,
2013-02-20 10:25:00,22.4,8.0,30.10,NNW,335,6.0,-999.0,60,-99.99,,,0.00,ADS-WS1 bash script,2013-02-20 15:25:00,
2013-02-20 10:30:00,22.2,8.0,30.10,NW,324,6.0,-999.0,59,-99.99,,,0.00,ADS-WS1 bash script,2013-02-20 15:30:00,
2013-02-20 10:40:00,22.4,8.0,30.10,NW,307,8.0,-999.0,59,-99.99,,,0.00,ADS-WS1 bash script,2013-02-20 15:40:00,
2013-02-20 10:45:00,22.4,8.0,30.11,NW,313,4.0,-999.0,59,-99.99,,,0.00,ADS-WS1 bash script,2013-02-20 15:45:00,
2013-02-20 10:50:00,22.4,8.0,30.11,North,354,6.0,-999.0,59,-99.99,,,0.00,ADS-WS1 bash script,2013-02-20 15:50:00,
2013-02-20 10:55:00,22.8,9.0,30.12,WNW,300,4.0,-999.0,59,-99.99,,,0.00,ADS-WS1 bash script,2013-02-20 15:55:00,
2013-02-20 11:00:00,22.8,8.0,30.11,NNW,333,7.0,-999.0,58,-99.99,,,0.00,ADS-WS1 bash script,2013-02-20 16:00:00,
2013-02-20 11:05:00,22.8,9.0,30.11,NW,313,7.0,-999.0,59,-99.99,,,0.00,ADS-WS1 bash script,2013-02-20 16:05:00,
2013-02-20 11:10:00,22.8,8.0,30.12,NW,313,6.0,-999.0,58,-99.99,,,0.00,ADS-WS1 bash script,2013-02-20 16:10:00,
2013-02-20 11:15:00,22.6,9.0,30.12,NW,320,3.0,-999.0,59,-99.99,,,0.00,ADS-WS1 bash script,2013-02-20 16:15:00,
2013-02-20 11:20:00,22.6,9.0,30.12,NNW,328,2.0,-999.0,61,-99.99,,,0.00,ADS-WS1 bash script,2013-02-20 16:20:00,
2013-02-20 11:25:00,22.8,9.0,30.12,NNW,330,6.0,-999.0,60,-99.99,,,0.00,ADS-WS1 bash script,2013-02-20 16:25:00,
2013-02-20 11:30:00,22.8,9.0,30.12,NW,313,10.0,-999.0,60,-99.99,,,0.00,ADS-WS1 bash script,2013-02-20 16:30:00,
2013-02-20 11:35:00,22.8,9.0,30.13,WNW,290,7.0,-999.0,61,-99.99,,,0.00,ADS-WS1 bash script,2013-02-20 16:35:00,
2013-02-20 11:40:00,22.8,9.0,30.13,NW,324,8.0,-999.0,61,-99.99,,,0.00,ADS-WS1 bash script,2013-02-20 16:40:00,
2013-02-20 11:45:00,22.8,9.0,30.13,NNW,328,8.0,-999.0,61,-99.99,,,0.00,ADS-WS1 bash script,2013-02-20 16:45:00,
2013-02-20 11:50:00,22.8,9.0,30.12,NW,319,7.0,-999.0,59,-99.99,,,0.00,ADS-WS1 bash script,2013-02-20 16:50:00,
2013-02-20 11:55:00,23.1,9.0,30.13,NW,324,4.0,-999.0,60,-99.99,,,0.00,ADS-WS1 bash script,2013-02-20 16:55:00,
2013-02-20 12:00:00,23.1,10.0,30.13,NW,313,9.0,-999.0,62,-99.99,,,0.00,ADS-WS1 bash script,2013-02-20 17:00:00,
2013-02-20 12:10:00,23.3,9.0,30.13,NW,313,6.0,-999.0,61,-99.99,,,0.00,ADS-WS1 bash script,2013-02-20 17:10:00,
2013-02-20 12:15:00,23.1,9.0,30.13,WNW,302,3.0,-999.0,60,-99.99,,,0.00,ADS-WS1 bash script,2013-02-20 17:15:00,
2013-02-20 12:20:00,23.3,10.0,30.14,NW,313,7.0,-999.0,63,-99.99,,,0.00,ADS-WS1 bash script,2013-02-20 17:20:00,
2013-02-20 12:25:00,23.1,11.0,30.13,NNW,343,11.0,-999.0,64,-99.99,,,0.00,ADS-WS1 bash script,2013-02-20 17:25:00,
2013-02-20 12:30:00,23.5,12.0,30.13,North,354,2.0,-999.0,64,-99.99,,,0.00,ADS-WS1 bash script,2013-02-20 17:30:00,
2013-02-20 12:35:00,23.7,10.0,30.13,NNW,331,4.0,-999.0,60,-99.99,,,0.00,ADS-WS1 bash script,2013-02-20 17:35:00,
2013-02-20 12:40:00,23.7,10.0,30.13,NNW,343,4.0,-999.0,61,-99.99,,,0.00,ADS-WS1 bash script,2013-02-20 17:40:00,
2013-02-20 12:45:00,23.7,10.0,30.13,NW,326,3.0,-999.0,60,-99.99,,,0.00,ADS-WS1 bash script,2013-02-20 17:45:00,
2013-02-20 12:50:00,23.7,10.0,30.14,NNW,328,4.0,-999.0,60,-99.99,,,0.00,ADS-WS1 bash script,2013-02-20 17:50:00,
2013-02-20 12:55:00,23.7,10.0,30.14,WNW,285,15.0,-999.0,61,-99.99,,,0.00,ADS-WS1 bash script,2013-02-20 17:55:00,
2013-02-20 13:05:00,24.0,10.0,30.14,NW,326,12.0,-999.0,60,-99.99,,,0.00,ADS-WS1 bash script,2013-02-20 18:05:00,
2013-02-20 13:10:00,24.0,9.0,30.14,NNW,335,4.0,-999.0,58,-99.99,,,0.00,ADS-WS1 bash script,2013-02-20 18:10:00,
2013-02-20 13:15:00,24.2,10.0,30.14,NW,326,3.0,-999.0,59,-99.99,,,0.00,ADS-WS1 bash script,2013-02-20 18:15:00,
2013-02-20 13:25:00,24.6,10.0,30.14,NNW,338,7.0,-999.0,58,-99.99,,,0.00,ADS-WS1 bash script,2013-02-20 18:25:00,
2013-02-20 13:30:00,24.6,10.0,30.14,NW,307,10.0,-999.0,58,-99.99,,,0.00,ADS-WS1 bash script,2013-02-20 18:30:00,
2013-02-20 13:35:00,24.6,11.0,30.14,NW,313,5.0,-999.0,59,-99.99,,,0.00,ADS-WS1 bash script,2013-02-20 18:35:00,
2013-02-20 13:40:00,24.8,10.0,30.14,NW,321,16.0,-999.0,58,-99.99,,,0.00,ADS-WS1 bash script,2013-02-20 18:40:00,
2013-02-20 13:45:00,24.8,10.0,30.14,NW,306,10.0,-999.0,58,-99.99,,,0.00,ADS-WS1 bash script,2013-02-20 18:45:00,
2013-02-20 13:50:00,24.8,10.0,30.14,West,279,6.0,-999.0,57,-99.99,,,0.00,ADS-WS1 bash script,2013-02-20 18:50:00,
2013-02-20 13:55:00,24.6,10.0,30.15,NW,319,17.0,-999.0,58,-99.99,,,0.00,ADS-WS1 bash script,2013-02-20 18:55:00,
2013-02-20 14:00:00,24.2,9.0,30.14,NW,313,6.0,-999.0,58,-99.99,,,0.00,ADS-WS1 bash script,2013-02-20 19:00:00,
2013-02-20 14:05:00,24.2,10.0,30.14,NNW,330,7.0,-999.0,59,-99.99,,,0.00,ADS-WS1 bash script,2013-02-20 19:05:00,
2013-02-20 14:10:00,24.0,9.0,30.14,NW,323,14.0,-999.0,58,-99.99,,,0.00,ADS-WS1 bash script,2013-02-20 19:10:00,
2013-02-20 14:20:00,24.2,9.0,30.15,NNW,335,4.0,-999.0,57,-99.99,,,0.00,ADS-WS1 bash script,2013-02-20 19:20:00,
2013-02-20 14:25:00,24.0,10.0,30.14,WNW,290,10.0,-999.0,60,-99.99,,,0.00,ADS-WS1 bash script,2013-02-20 19:25:00,
2013-02-20 14:30:00,24.0,10.0,30.15,WNW,296,7.0,-999.0,59,-99.99,,,0.00,ADS-WS1 bash script,2013-02-20 19:30:00,
2013-02-20 14:35:00,24.0,10.0,30.15,NNE,12,3.0,-999.0,60,-99.99,,,0.00,ADS-WS1 bash script,2013-02-20 19:35:00,
2013-02-20 14:40:00,24.0,10.0,30.15,NW,313,10.0,-999.0,61,-99.99,,,0.00,ADS-WS1 bash script,2013-02-20 19:40:00,
2013-02-20 14:50:00,24.0,11.0,30.14,WNW,303,3.0,-999.0,62,-99.99,,,0.00,ADS-WS1 bash script,2013-02-20 19:50:00,
2013-02-20 14:55:00,24.0,11.0,30.15,NW,306,4.0,-999.0,63,-99.99,,,0.00,ADS-WS1 bash script,2013-02-20 19:55:00,
2013-02-20 15:00:00,24.0,10.0,30.15,West,268,3.0,-999.0,61,-99.99,,,0.00,ADS-WS1 bash script,2013-02-20 20:00:00,
2013-02-20 15:05:00,24.0,11.0,30.14,NW,313,7.0,-999.0,62,-99.99,,,0.00,ADS-WS1 bash script,2013-02-20 20:05:00,
2013-02-20 15:10:00,24.4,11.0,30.16,North,0,3.0,-999.0,62,-99.99,,,0.00,ADS-WS1 bash script,2013-02-20 20:10:00,
2013-02-20 15:15:00,24.4,10.0,30.15,NW,313,4.0,-999.0,61,-99.99,,,0.00,ADS-WS1 bash script,2013-02-20 20:15:00,
2013-02-20 15:20:00,24.4,10.0,30.16,NW,309,7.0,-999.0,61,-99.99,,,0.00,ADS-WS1 bash script,2013-02-20 20:20:00,
2013-02-20 15:25:00,24.6,12.0,30.15,NNW,331,1.0,-999.0,62,-99.99,,,0.00,ADS-WS1 bash script,2013-02-20 20:25:00,
2013-02-20 15:30:00,24.8,11.0,30.16,North,352,3.0,-999.0,61,-99.99,,,0.00,ADS-WS1 bash script,2013-02-20 20:30:00,
2013-02-20 15:40:00,24.4,10.0,30.16,WNW,290,5.0,-999.0,61,-99.99,,,0.00,ADS-WS1 bash script,2013-02-20 20:40:00,
2013-02-20 15:50:00,24.2,11.0,30.17,North,0,10.0,-999.0,62,-99.99,,,0.00,ADS-WS1 bash script,2013-02-20 20:50:00,
2013-02-20 16:00:00,24.0,10.0,30.17,West,268,11.0,-999.0,61,-99.99,,,0.00,ADS-WS1 bash script,2013-02-20 21:00:00,
2013-02-20 16:10:00,24.0,11.0,30.19,NNW,343,2.0,-999.0,63,-99.99,,,0.00,ADS-WS1 bash script,2013-02-20 21:10:00,
2013-02-20 16:15:00,24.0,11.0,30.19,WNW,290,8.0,-999.0,62,-99.99,,,0.00,ADS-WS1 bash script,2013-02-20 21:15:00,
2013-02-20 16:20:00,24.0,11.0,30.19,WNW,302,5.0,-999.0,63,-99.99,,,0.00,ADS-WS1 bash script,2013-02-20 21:20:00,
2013-02-20 16:25:00,23.9,11.0,30.19,NW,313,6.0,-999.0,62,-99.99,,,0.00,ADS-WS1 bash script,2013-02-20 21:25:00,
2013-02-20 16:35:00,23.9,11.0,30.20,WNW,299,3.0,-999.0,63,-99.99,,,0.00,ADS-WS1 bash script,2013-02-20 21:35:00,
2013-02-20 16:40:00,23.9,11.0,30.20,WNW,290,6.0,-999.0,63,-99.99,,,0.00,ADS-WS1 bash script,2013-02-20 21:40:00,
2013-02-20 16:45:00,23.7,12.0,30.21,WNW,290,9.0,-999.0,65,-99.99,,,0.00,ADS-WS1 bash script,2013-02-20 21:45:00,
2013-02-20 16:50:00,23.5,12.0,30.20,WNW,299,9.0,-999.0,64,-99.99,,,0.00,ADS-WS1 bash script,2013-02-20 21:50:00,
2013-02-20 16:55:00,23.5,12.0,30.21,WNW,299,4.0,-999.0,65,-99.99,,,0.00,ADS-WS1 bash script,2013-02-20 21:55:00,
2013-02-20 17:00:00,23.5,12.0,30.21,NW,324,8.0,-999.0,65,-99.99,,,0.00,ADS-WS1 bash script,2013-02-20 22:00:00,
2013-02-20 17:05:00,23.5,12.0,30.21,WNW,302,10.0,-999.0,64,-99.99,,,0.00,ADS-WS1 bash script,2013-02-20 22:05:00,
2013-02-20 17:10:00,23.5,12.0,30.21,NW,313,10.0,-999.0,65,-99.99,,,0.00,ADS-WS1 bash script,2013-02-20 22:10:00,
2013-02-20 17:15:00,23.5,12.0,30.21,NW,324,7.0,-999.0,64,-99.99,,,0.00,ADS-WS1 bash script,2013-02-20 22:15:00,
2013-02-20 17:20:00,23.5,12.0,30.21,NW,313,5.0,-999.0,65,-99.99,,,0.00,ADS-WS1 bash script,2013-02-20 22:20:00,
2013-02-20 17:25:00,23.5,12.0,30.21,NW,307,4.0,-999.0,66,-99.99,,,0.00,ADS-WS1 bash script,2013-02-20 22:25:00,
2013-02-20 17:30:00,23.5,12.0,30.21,NW,313,11.0,-999.0,65,-99.99,,,0.00,ADS-WS1 bash script,2013-02-20 22:30:00,
2013-02-20 17:40:00,23.5,12.0,30.20,NW,313,9.0,-999.0,65,-99.99,,,0.00,ADS-WS1 bash script,2013-02-20 22:40:00,
2013-02-20 17:45:00,23.5,12.0,30.20,NW,306,2.0,-999.0,66,-99.99,,,0.00,ADS-WS1 bash script,2013-02-20 22:45:00,
2013-02-20 17:50:00,23.5,12.0,30.20,NNW,340,9.0,-999.0,66,-99.99,,,0.00,ADS-WS1 bash script,2013-02-20 22:50:00,
2013-02-20 18:00:00,23.3,11.0,30.19,NW,313,3.0,-999.0,66,-99.99,,,0.00,ADS-WS1 bash script,2013-02-20 23:00:00,
2013-02-20 18:05:00,23.3,12.0,30.19,NW,313,6.0,-999.0,67,-99.99,,,0.00,ADS-WS1 bash script,2013-02-20 23:05:00,
2013-02-20 18:10:00,23.3,11.0,30.19,NNE,29,5.0,-999.0,66,-99.99,,,0.00,ADS-WS1 bash script,2013-02-20 23:10:00,
2013-02-20 18:15:00,23.3,12.0,30.19,North,0,4.0,-999.0,67,-99.99,,,0.00,ADS-WS1 bash script,2013-02-20 23:15:00,
2013-02-20 18:20:00,23.3,12.0,30.19,NNW,343,5.0,-999.0,67,-99.99,,,0.00,ADS-WS1 bash script,2013-02-20 23:20:00,
2013-02-20 18:25:00,23.3,12.0,30.19,NW,306,2.0,-999.0,68,-99.99,,,0.00,ADS-WS1 bash script,2013-02-20 23:25:00,
2013-02-20 18:30:00,23.3,12.0,30.19,NW,316,4.0,-999.0,68,-99.99,,,0.00,ADS-WS1 bash script,2013-02-20 23:30:00,
2013-02-20 18:35:00,23.3,12.0,30.19,NW,306,8.0,-999.0,68,-99.99,,,0.00,ADS-WS1 bash script,2013-02-20 23:35:00,
2013-02-20 18:40:00,23.3,12.0,30.19,NW,320,8.0,-999.0,68,-99.99,,,0.00,ADS-WS1 bash script,2013-02-20 23:40:00,
2013-02-20 18:45:00,23.3,12.0,30.19,NW,320,5.0,-999.0,69,-99.99,,,0.00,ADS-WS1 bash script,2013-02-20 23:45:00,
2013-02-20 18:50:00,23.3,12.0,30.19,NW,313,4.0,-999.0,68,-99.99,,,0.00,ADS-WS1 bash script,2013-02-20 23:50:00,
2013-02-20 18:55:00,23.5,13.0,30.20,NNW,333,5.0,-999.0,69,-99.99,,,0.00,ADS-WS1 bash script,2013-02-20 23:55:00,
2013-02-20 19:00:00,23.5,13.0,30.20,NW,319,9.0,-999.0,68,-99.99,,,0.00,ADS-WS1 bash script,2013-02-21 00:00:00,
2013-02-20 19:05:00,23.3,12.0,30.20,NNW,343,5.0,-999.0,69,-99.99,,,0.00,ADS-WS1 bash script,2013-02-21 00:05:00,
2013-02-20 19:10:00,23.5,13.0,30.21,NW,319,11.0,-999.0,68,-99.99,,,0.00,ADS-WS1 bash script,2013-02-21 00:10:00,
2013-02-20 19:15:00,23.5,13.0,30.21,WNW,293,7.0,-999.0,69,-99.99,,,0.00,ADS-WS1 bash script,2013-02-21 00:15:00,
2013-02-20 19:20:00,23.5,13.0,30.20,NW,306,7.0,-999.0,68,-99.99,,,0.00,ADS-WS1 bash script,2013-02-21 00:20:00,
2013-02-20 19:25:00,23.5,13.0,30.20,NNW,338,9.0,-999.0,68,-99.99,,,0.00,ADS-WS1 bash script,2013-02-21 00:25:00,
2013-02-20 19:30:00,23.5,13.0,30.21,NW,317,5.0,-999.0,69,-99.99,,,0.00,ADS-WS1 bash script,2013-02-21 00:30:00,
2013-02-20 19:35:00,23.7,13.0,30.21,NNW,335,3.0,-999.0,69,-99.99,,,0.00,ADS-WS1 bash script,2013-02-21 00:35:00,
2013-02-20 19:40:00,23.5,13.0,30.20,NW,323,4.0,-999.0,69,-99.99,,,0.00,ADS-WS1 bash script,2013-02-21 00:40:00,
2013-02-20 19:50:00,23.7,14.0,30.21,NNW,341,5.0,-999.0,70,-99.99,,,0.00,ADS-WS1 bash script,2013-02-21 00:50:00,
2013-02-20 19:55:00,23.7,13.0,30.20,WNW,303,6.0,-999.0,68,-99.99,,,0.00,ADS-WS1 bash script,2013-02-21 00:55:00,
2013-02-20 20:05:00,23.7,13.0,30.20,North,350,8.0,-999.0,69,-99.99,,,0.00,ADS-WS1 bash script,2013-02-21 01:05:00,
2013-02-20 20:10:00,23.7,14.0,30.20,NNW,328,3.0,-999.0,70,-99.99,,,0.00,ADS-WS1 bash script,2013-02-21 01:10:00,
2013-02-20 20:15:00,23.7,13.0,30.21,NW,316,3.0,-999.0,69,-99.99,,,0.00,ADS-WS1 bash script,2013-02-21 01:15:00,
2013-02-20 20:25:00,23.7,13.0,30.20,NNW,330,3.0,-999.0,69,-99.99,,,0.00,ADS-WS1 bash script,2013-02-21 01:25:00,
2013-02-20 20:30:00,23.9,14.0,30.21,NW,310,3.0,-999.0,70,-99.99,,,0.00,ADS-WS1 bash script,2013-02-21 01:30:00,
2013-02-20 20:35:00,23.9,14.0,30.21,NNW,331,5.0,-999.0,70,-99.99,,,0.00,ADS-WS1 bash script,2013-02-21 01:35:00,
2013-02-20 20:40:00,23.9,13.0,30.21,NW,313,4.0,-999.0,69,-99.99,,,0.00,ADS-WS1 bash script,2013-02-21 01:40:00,
2013-02-20 20:45:00,23.9,14.0,30.21,NW,309,6.0,-999.0,70,-99.99,,,0.00,ADS-WS1 bash script,2013-02-21 01:45:00,
2013-02-20 20:50:00,23.9,14.0,30.21,NW,313,3.0,-999.0,70,-99.99,,,0.00,ADS-WS1 bash script,2013-02-21 01:50:00,
2013-02-20 20:55:00,24.0,14.0,30.21,NNE,16,2.0,-999.0,70,-99.99,,,0.00,ADS-WS1 bash script,2013-02-21 01:55:00,
2013-02-20 21:00:00,24.0,13.0,30.22,NNW,333,3.0,-999.0,69,-99.99,,,0.00,ADS-WS1 bash script,2013-02-21 02:00:00,
2013-02-20 21:05:00,24.0,13.0,30.22,NW,313,4.0,-999.0,69,-99.99,,,0.00,ADS-WS1 bash script,2013-02-21 02:05:00,
2013-02-20 21:10:00,24.0,14.0,30.21,WNW,283,4.0,-999.0,70,-99.99,,,0.00,ADS-WS1 bash script,2013-02-21 02:10:00,
2013-02-20 21:15:00,24.0,14.0,30.22,NNW,328,4.0,-999.0,70,-99.99,,,0.00,ADS-WS1 bash script,2013-02-21 02:15:00,
2013-02-20 21:20:00,24.0,14.0,30.22,NW,313,4.0,-999.0,70,-99.99,,,0.00,ADS-WS1 bash script,2013-02-21 02:20:00,
2013-02-20 21:25:00,24.0,14.0,30.22,NW,320,5.0,-999.0,70,-99.99,,,0.00,ADS-WS1 bash script,2013-02-21 02:25:00,
2013-02-20 21:30:00,24.0,14.0,30.22,NNW,344,4.0,-999.0,71,-99.99,,,0.00,ADS-WS1 bash script,2013-02-21 02:30:00,
2013-02-20 21:40:00,24.0,14.0,30.22,North,350,4.0,-999.0,72,-99.99,,,0.00,ADS-WS1 bash script,2013-02-21 02:40:00,
2013-02-20 21:50:00,24.0,14.0,30.22,NNW,333,1.0,-999.0,72,-99.99,,,0.00,ADS-WS1 bash script,2013-02-21 02:50:00,
2013-02-20 21:55:00,24.0,15.0,30.21,NW,319,1.0,-999.0,73,-99.99,,,0.00,ADS-WS1 bash script,2013-02-21 02:55:00,
2013-02-20 22:00:00,24.0,14.0,30.22,NW,313,6.0,-999.0,72,-99.99,,,0.00,ADS-WS1 bash script,2013-02-21 03:00:00,
2013-02-20 22:05:00,23.9,14.0,30.22,NE,43,8.0,-999.0,71,-99.99,,,0.00,ADS-WS1 bash script,2013-02-21 03:05:00,
2013-02-20 22:10:00,24.0,14.0,30.22,NE,43,3.0,-999.0,71,-99.99,,,0.00,ADS-WS1 bash script,2013-02-21 03:10:00,
2013-02-20 22:15:00,23.9,14.0,30.22,North,0,4.0,-999.0,70,-99.99,,,0.00,ADS-WS1 bash script,2013-02-21 03:15:00,
2013-02-20 22:20:00,23.9,14.0,30.22,North,1,5.0,-999.0,70,-99.99,,,0.00,ADS-WS1 bash script,2013-02-21 03:20:00,
2013-02-20 22:25:00,23.7,14.0,30.22,NNE,29,3.0,-999.0,71,-99.99,,,0.00,ADS-WS1 bash script,2013-02-21 03:25:00,
2013-02-20 22:30:00,23.7,14.0,30.22,NE,39,7.0,-999.0,72,-99.99,,,0.00,ADS-WS1 bash script,2013-02-21 03:30:00,
2013-02-20 22:35:00,23.7,15.0,30.22,North,0,8.0,-999.0,73,-99.99,,,0.00,ADS-WS1 bash script,2013-02-21 03:35:00,
2013-02-20 22:40:00,23.7,14.0,30.22,NW,313,3.0,-999.0,72,-99.99,,,0.00,ADS-WS1 bash script,2013-02-21 03:40:00,
2013-02-20 22:45:00,23.5,15.0,30.22,NNE,28,3.0,-999.0,74,-99.99,,,0.00,ADS-WS1 bash script,2013-02-21 03:45:00,
2013-02-20 22:50:00,23.5,15.0,30.22,North,0,2.0,-999.0,74,-99.99,,,0.00,ADS-WS1 bash script,2013-02-21 03:50:00,
2013-02-20 22:55:00,23.5,15.0,30.22,NE,43,6.0,-999.0,73,-99.99,,,0.00,ADS-WS1 bash script,2013-02-21 03:55:00,
2013-02-20 23:00:00,23.5,15.0,30.22,NW,313,2.0,-999.0,75,-99.99,,,0.00,ADS-WS1 bash script,2013-02-21 04:00:00,
2013-02-20 23:05:00,23.5,15.0,30.23,North,0,3.0,-999.0,74,-99.99,,,0.00,ADS-WS1 bash script,2013-02-21 04:05:00,
2013-02-20 23:10:00,23.5,15.0,30.23,NNW,333,7.0,-999.0,74,-99.99,,,0.00,ADS-WS1 bash script,2013-02-21 04:10:00,
2013-02-20 23:15:00,23.5,15.0,30.23,NW,319,2.0,-999.0,74,-99.99,,,0.00,ADS-WS1 bash script,2013-02-21 04:15:00,
2013-02-20 23:25:00,23.5,15.0,30.23,NW,310,7.0,-999.0,74,-99.99,,,0.00,ADS-WS1 bash script,2013-02-21 04:25:00,
2013-02-20 23:35:00,23.5,15.0,30.22,NW,309,2.0,-999.0,74,-99.99,,,0.00,ADS-WS1 bash script,2013-02-21 04:35:00,
2013-02-20 23:40:00,23.3,14.0,30.22,North,2,5.0,-999.0,73,-99.99,,,0.00,ADS-WS1 bash script,2013-02-21 04:40:00,
2013-02-20 23:45:00,23.1,13.0,30.22,NE,39,2.0,-999.0,72,-99.99,,,0.00,ADS-WS1 bash script,2013-02-21 04:45:00,
2013-02-20 23:50:00,23.1,14.0,30.23,North,5,6.0,-999.0,73,-99.99,,,0.00,ADS-WS1 bash script,2013-02-21 04:50:00,
2013-02-20 23:55:00,23.1,13.0,30.23,NNW,331,3.0,-999.0,72,-99.99,,,0.00,ADS-WS1 bash script,2013-02-21 04:55:00,